******** Week 359 almanac for PRN-1 ******** ID: 1 Health: 0 Eccentricity: 0.001564025879 Time of Applicability(s): 503808 Orbital Inclination(rad): 0.9583389177 Rate of Right Ascen(r/s): -7.920329913e-09 SQRT(A) (m 1/2): 5153.57959 Right Ascen at Week(rad): -3.023330825 Argument of Perigee(rad): 0.06876772958 Mean Anom(rad): 2.124060055 Af0(s): 0.0002570029419 Af1(s/s): -7.275958e-12 week: 359 ******** Week 359 almanac for PRN-2 ******** ID: 2 Health: 0 Eccentricity: 0.01692295074 Time of Applicability(s): 503808 Orbital Inclination(rad): 0.963629953 Rate of Right Ascen(r/s): -7.714607058e-09 SQRT(A) (m 1/2): 5153.552246 Right Ascen at Week(rad): 3.097391088 Argument of Perigee(rad): -0.8152336406 Mean Anom(rad): -2.710662772 Af0(s): 3.768371582e-05 Af1(s/s): 7.275958e-12 week: 359 ******** Week 359 almanac for PRN-3 ******** ID: 3 Health: 0 Eccentricity: 0.006471157074 Time of Applicability(s): 503808 Orbital Inclination(rad): 0.9931351148 Rate of Right Ascen(r/s): -7.943188008e-09 SQRT(A) (m 1/2): 5153.58252 Right Ascen at Week(rad): -2.036567348 Argument of Perigee(rad): 1.201813278 Mean Anom(rad): -0.0236156642 Af0(s): 0.0004393921265 Af1(s/s): -1.091394e-11 week: 359 ******** Week 359 almanac for PRN-4 ******** ID: 4 Health: 0 Eccentricity: 0.003717422485 Time of Applicability(s): 503808 Orbital Inclination(rad): 0.9705088981 Rate of Right Ascen(r/s): -7.794610391e-09 SQRT(A) (m 1/2): 5153.690918 Right Ascen at Week(rad): -0.9656094478 Argument of Perigee(rad): -2.882031945 Mean Anom(rad): 2.964024267 Af0(s): 3.69300415e-05 Af1(s/s): 3.637979e-12 week: 359 ******** Week 359 almanac for PRN-5 ******** ID: 5 Health: 0 Eccentricity: 0.005388259888 Time of Applicability(s): 503808 Orbital Inclination(rad): 0.9797127829 Rate of Right Ascen(r/s): -8.080336578e-09 SQRT(A) (m 1/2): 5153.653809 Right Ascen at Week(rad): -2.096282868 Argument of Perigee(rad): 1.416613282 Mean Anom(rad): -2.658811525 Af0(s): -0.0001816355103 Af1(s/s): 0 week: 359 ******** Week 359 almanac for PRN-6 ******** ID: 6 Health: 0 Eccentricity: 0.003866672516 Time of Applicability(s): 503808 Orbital Inclination(rad): 0.9872268919 Rate of Right Ascen(r/s): -7.588887536e-09 SQRT(A) (m 1/2): 5153.594727 Right Ascen at Week(rad): -3.072871364 Argument of Perigee(rad): -0.5738897018 Mean Anom(rad): 1.303533506 Af0(s): -0.0004838589111 Af1(s/s): 0 week: 359 ******** Week 359 almanac for PRN-7 ******** ID: 7 Health: 0 Eccentricity: 0.02045249939 Time of Applicability(s): 503808 Orbital Inclination(rad): 0.9513581067 Rate of Right Ascen(r/s): -7.726036106e-09 SQRT(A) (m 1/2): 5153.574219 Right Ascen at Week(rad): 0.04293386025 Argument of Perigee(rad): -1.992987463 Mean Anom(rad): 0.431978128 Af0(s): -0.0001220952393 Af1(s/s): -3.637979e-12 week: 359 ******** Week 359 almanac for PRN-8 ******** ID: 8 Health: 0 Eccentricity: 0.01156520843 Time of Applicability(s): 503808 Orbital Inclination(rad): 0.943328676 Rate of Right Ascen(r/s): -7.977475151e-09 SQRT(A) (m 1/2): 5153.628906 Right Ascen at Week(rad): 2.090427451 Argument of Perigee(rad): 0.5230335199 Mean Anom(rad): -3.022113303 Af0(s): 0.000383620227 Af1(s/s): -7.275958e-12 week: 359 ******** Week 359 almanac for PRN-9 ******** ID: 9 Health: 0 Eccentricity: 0.003360271454 Time of Applicability(s): 503808 Orbital Inclination(rad): 0.96464262 Rate of Right Ascen(r/s): -7.908900866e-09 SQRT(A) (m 1/2): 5153.734375 Right Ascen at Week(rad): -1.029845642 Argument of Perigee(rad): 2.065362445 Mean Anom(rad): -2.424280243 Af0(s): 0.000607461499 Af1(s/s): 0 week: 359 ******** Week 359 almanac for PRN-10 ******** ID: 10 Health: 0 Eccentricity: 0.01094341278 Time of Applicability(s): 503808 Orbital Inclination(rad): 0.99266773 Rate of Right Ascen(r/s): -7.954617056e-09 SQRT(A) (m 1/2): 5153.603516 Right Ascen at Week(rad): -2.039078418 Argument of Perigee(rad): -2.255186201 Mean Anom(rad): -1.014426439 Af0(s): -0.0004657707275 Af1(s/s): 0 week: 359 ******** Week 359 almanac for PRN-11 ******** ID: 11 Health: 0 Eccentricity: 0.002215862274 Time of Applicability(s): 503808 Orbital Inclination(rad): 0.9640853536 Rate of Right Ascen(r/s): -7.828897533e-09 SQRT(A) (m 1/2): 5153.52832 Right Ascen at Week(rad): -3.054018306 Argument of Perigee(rad): -2.29549589 Mean Anom(rad): 2.371767991 Af0(s): -0.0003353850708 Af1(s/s): 1.455192e-11 week: 359 ******** Week 359 almanac for PRN-12 ******** ID: 12 Health: 0 Eccentricity: 0.009030818939 Time of Applicability(s): 503808 Orbital Inclination(rad): 0.9589321369 Rate of Right Ascen(r/s): -7.966046103e-09 SQRT(A) (m 1/2): 5153.711914 Right Ascen at Week(rad): 1.160543352 Argument of Perigee(rad): 1.559152529 Mean Anom(rad): -0.2235511099 Af0(s): -0.0004800905395 Af1(s/s): 0 week: 359 ******** Week 359 almanac for PRN-13 ******** ID: 13 Health: 0 Eccentricity: 0.01000022888 Time of Applicability(s): 503808 Orbital Inclination(rad): 0.9762073971 Rate of Right Ascen(r/s): -7.703178011e-09 SQRT(A) (m 1/2): 5153.630859 Right Ascen at Week(rad): -0.8547557419 Argument of Perigee(rad): 0.9961130452 Mean Anom(rad): 3.012996304 Af0(s): 0.0005418918335 Af1(s/s): 0 week: 359 ******** Week 359 almanac for PRN-14 ******** ID: 14 Health: 0 Eccentricity: 0.006704807281 Time of Applicability(s): 503808 Orbital Inclination(rad): 0.942316009 Rate of Right Ascen(r/s): -8.137481816e-09 SQRT(A) (m 1/2): 5153.585449 Right Ascen at Week(rad): 1.105935359 Argument of Perigee(rad): -2.751436476 Mean Anom(rad): -0.3846625355 Af0(s): 0.0005825902466 Af1(s/s): 3.637979e-12 week: 359 ******** Week 359 almanac for PRN-15 ******** ID: 15 Health: 0 Eccentricity: 0.01661729813 Time of Applicability(s): 503808 Orbital Inclination(rad): 0.9424658119 Rate of Right Ascen(r/s): -8.206056101e-09 SQRT(A) (m 1/2): 5153.642578 Right Ascen at Week(rad): -1.173856328 Argument of Perigee(rad): 1.500080412 Mean Anom(rad): 2.264824513 Af0(s): 0.0003082527954 Af1(s/s): 3.637979e-12 week: 359 ******** Week 359 almanac for PRN-16 ******** ID: 16 Health: 0 Eccentricity: 0.01504611969 Time of Applicability(s): 503808 Orbital Inclination(rad): 0.9580572885 Rate of Right Ascen(r/s): -8.000333246e-09 SQRT(A) (m 1/2): 5153.582031 Right Ascen at Week(rad): 1.177527995 Argument of Perigee(rad): 0.9292953738 Mean Anom(rad): -1.99684526 Af0(s): 0.0001710840698 Af1(s/s): 7.275958e-12 week: 359 ******** Week 359 almanac for PRN-17 ******** ID: 17 Health: 0 Eccentricity: 0.01265907288 Time of Applicability(s): 503808 Orbital Inclination(rad): 0.9590699555 Rate of Right Ascen(r/s): -7.806039438e-09 SQRT(A) (m 1/2): 5153.538574 Right Ascen at Week(rad): 2.195097297 Argument of Perigee(rad): -1.122738366 Mean Anom(rad): -3.095008475 Af0(s): -5.878659668e-05 Af1(s/s): -1.091394e-11 week: 359 ******** Week 359 almanac for PRN-18 ******** ID: 18 Health: 0 Eccentricity: 0.005742073059 Time of Applicability(s): 503808 Orbital Inclination(rad): 0.9721866896 Rate of Right Ascen(r/s): -7.748894201e-09 SQRT(A) (m 1/2): 5153.59668 Right Ascen at Week(rad): -3.0778583 Argument of Perigee(rad): -2.862712251 Mean Anom(rad): 1.202239092 Af0(s): -0.0003270946533 Af1(s/s): 1.091394e-11 week: 359 ******** Week 359 almanac for PRN-19 ******** ID: 19 Health: 0 Eccentricity: 0.01112413406 Time of Applicability(s): 503808 Orbital Inclination(rad): 0.9582789966 Rate of Right Ascen(r/s): -7.794610391e-09 SQRT(A) (m 1/2): 5153.668457 Right Ascen at Week(rad): 2.238995887 Argument of Perigee(rad): 2.929367387 Mean Anom(rad): -1.274897201 Af0(s): 0.0005464138794 Af1(s/s): 0 week: 359 ******** Week 359 almanac for PRN-20 ******** ID: 20 Health: 255 Eccentricity: 0.0003161430359 Time of Applicability(s): 503808 Orbital Inclination(rad): 0.960058654 Rate of Right Ascen(r/s): -7.954617056e-09 SQRT(A) (m 1/2): 5153.648926 Right Ascen at Week(rad): -1.024222794 Argument of Perigee(rad): 1.149736577 Mean Anom(rad): 2.881682156 Af0(s): 1.658083496e-05 Af1(s/s): 2.546585e-11 week: 359 ******** Week 359 almanac for PRN-21 ******** ID: 21 Health: 0 Eccentricity: 0.0007328987122 Time of Applicability(s): 503808 Orbital Inclination(rad): 0.9625513728 Rate of Right Ascen(r/s): -8.263201338e-09 SQRT(A) (m 1/2): 5153.709961 Right Ascen at Week(rad): -2.03022657 Argument of Perigee(rad): -0.3550038259 Mean Anom(rad): -0.4898289777 Af0(s): 0.0003188042358 Af1(s/s): 3.637979e-12 week: 359 ******** Week 359 almanac for PRN-22 ******** ID: 22 Health: 0 Eccentricity: 0.01210260391 Time of Applicability(s): 503808 Orbital Inclination(rad): 0.9574940299 Rate of Right Ascen(r/s): -7.988904198e-09 SQRT(A) (m 1/2): 5153.561523 Right Ascen at Week(rad): 1.180879084 Argument of Perigee(rad): -0.9943202801 Mean Anom(rad): -2.446098274 Af0(s): -3.240799561e-05 Af1(s/s): 3.637979e-12 week: 359 ******** Week 359 almanac for PRN-23 ******** ID: 23 Health: 0 Eccentricity: 0.006023406982 Time of Applicability(s): 503808 Orbital Inclination(rad): 0.9876822924 Rate of Right Ascen(r/s): -8.000333246e-09 SQRT(A) (m 1/2): 5153.65625 Right Ascen at Week(rad): -2.071156443 Argument of Perigee(rad): -2.737571851 Mean Anom(rad): 0.07024965389 Af0(s): 0.000488380957 Af1(s/s): 3.637979e-12 week: 359 ******** Week 359 almanac for PRN-24 ******** ID: 24 Health: 0 Eccentricity: 0.01789522171 Time of Applicability(s): 503808 Orbital Inclination(rad): 0.9353591665 Rate of Right Ascen(r/s): -7.931758961e-09 SQRT(A) (m 1/2): 5153.597656 Right Ascen at Week(rad): -0.06546607561 Argument of Perigee(rad): 1.134487026 Mean Anom(rad): 1.414275609 Af0(s): -8.139682617e-05 Af1(s/s): 1.455192e-11 week: 359 ******** Week 359 almanac for PRN-25 ******** ID: 25 Health: 0 Eccentricity: 0.01293849945 Time of Applicability(s): 503808 Orbital Inclination(rad): 0.9473373993 Rate of Right Ascen(r/s): -8.091765626e-09 SQRT(A) (m 1/2): 5153.659668 Right Ascen at Week(rad): 1.066725971 Argument of Perigee(rad): 1.157124103 Mean Anom(rad): -0.360445413 Af0(s): 0.0003481975342 Af1(s/s): -3.637979e-12 week: 359 ******** Week 359 almanac for PRN-26 ******** ID: 26 Health: 0 Eccentricity: 0.01099967957 Time of Applicability(s): 503808 Orbital Inclination(rad): 0.9281686315 Rate of Right Ascen(r/s): -8.308917528e-09 SQRT(A) (m 1/2): 5153.645996 Right Ascen at Week(rad): 0.9922294074 Argument of Perigee(rad): 0.7092032108 Mean Anom(rad): -1.181441219 Af0(s): -0.0002637860107 Af1(s/s): -7.275958e-12 week: 359 ******** Week 359 almanac for PRN-27 ******** ID: 27 Health: 0 Eccentricity: 0.01434993744 Time of Applicability(s): 503808 Orbital Inclination(rad): 0.9524426791 Rate of Right Ascen(r/s): -7.897471818e-09 SQRT(A) (m 1/2): 5153.612793 Right Ascen at Week(rad): 2.122435443 Argument of Perigee(rad): 0.8807094534 Mean Anom(rad): -2.922085846 Af0(s): -4.220576172e-05 Af1(s/s): -1.091394e-11 week: 359 ******** Week 359 almanac for PRN-28 ******** ID: 28 Health: 0 Eccentricity: 0.0004162788391 Time of Applicability(s): 503808 Orbital Inclination(rad): 0.9623056962 Rate of Right Ascen(r/s): -7.623174678e-09 SQRT(A) (m 1/2): 5153.745605 Right Ascen at Week(rad): 0.01716552965 Argument of Perigee(rad): 0.03942060981 Mean Anom(rad): 0.7283146789 Af0(s): -0.0004642633789 Af1(s/s): 7.275958e-12 week: 359 ******** Week 359 almanac for PRN-29 ******** ID: 29 Health: 0 Eccentricity: 0.003368377686 Time of Applicability(s): 503808 Orbital Inclination(rad): 0.9617304534 Rate of Right Ascen(r/s): -7.737465153e-09 SQRT(A) (m 1/2): 5153.711426 Right Ascen at Week(rad): 2.211814167 Argument of Perigee(rad): 2.738719715 Mean Anom(rad): -3.053019496 Af0(s): -0.0002909182861 Af1(s/s): 7.275958e-12 week: 359 ******** Week 359 almanac for PRN-30 ******** ID: 30 Health: 0 Eccentricity: 0.008042812347 Time of Applicability(s): 503808 Orbital Inclination(rad): 0.9366175101 Rate of Right Ascen(r/s): -7.874613723e-09 SQRT(A) (m 1/2): 5153.708008 Right Ascen at Week(rad): 0.03397902269 Argument of Perigee(rad): -2.321129398 Mean Anom(rad): 0.268258261 Af0(s): 0.0001070217529 Af1(s/s): 1.455192e-11 week: 359 ******** Week 359 almanac for PRN-31 ******** ID: 31 Health: 0 Eccentricity: 0.01080799103 Time of Applicability(s): 503808 Orbital Inclination(rad): 0.9551211534 Rate of Right Ascen(r/s): -7.703178011e-09 SQRT(A) (m 1/2): 5153.727051 Right Ascen at Week(rad): 0.06713150837 Argument of Perigee(rad): 0.9392149414 Mean Anom(rad): -0.6728026256 Af0(s): -0.0001296319824 Af1(s/s): 3.637979e-12 week: 359 ******** Week 359 almanac for PRN-32 ******** ID: 32 Health: 0 Eccentricity: 0.009327888489 Time of Applicability(s): 503808 Orbital Inclination(rad): 0.9676985974 Rate of Right Ascen(r/s): -7.851755628e-09 SQRT(A) (m 1/2): 5153.687012 Right Ascen at Week(rad): -1.012850513 Argument of Perigee(rad): -2.000360383 Mean Anom(rad): -2.34241488 Af0(s): -5.727924805e-05 Af1(s/s): 1.818989e-11 week: 359